Volver al catálogo

GALILEO 15 (267)

ActivoNavegaciónMEO
NORAD 41859·PAYLOAD·🇪🇺 EU

Lanzado Nov 17, 2016 desde Guiana Space Centre

Loading…

Próximos Pases (próximas 24 horas)

TLE

ActualizadoSource: CelesTrak SupGP

Época: Sep 13, 2026, 23:59 UTC

1 41859C 16069A   26256.99979167  .00000000  00000+0  00000+0 0  2561
2 41859  55.5553  98.6267 0002832   0.1257  57.1027  1.70474048    13

Sigue GALILEO 15 (267) en tiempo real con AllMySat

Download on the App Store